Regional Weather Roundup
Issued by NWS

Home | Current Version | Previous Version | Graphics & Text | Print | Product List | Glossary On
Versions: 1 2 3 4 5 6 7 8 9 10 11 12 13 14 15 16 17 18 19 20 21 22 23 24 25 26 27 28 29 30 31 32 33 34 35 36 37 38 39 40 41 42 43 44 45 46 47 48 49 50
000
ASUS43 KOAX 250510
RWRNE

WEATHER ROUNDUP FOR NEBRASKA
NATIONAL WEATHER SERVICE OMAHA NE
1200 AM CDT MON JUL 25 2016

NOTES: SATELLITE DATA IS BEING USED TO AUGMENT CLOUD COVER ABOVE
       12000 FEET.
       "FAIR" INDICATES FEW OR NO CLOUDS BELOW 12,000 FEET WITH NO
       SIGNIFICANT WEATHER AND/OR OBSTRUCTIONS TO VISIBILITY.

  * THESE STATIONS DO NOT REPORT WEATHER SUCH AS RAIN...SNOW OR FOG.

NEZ001>004-019>022-054>056-250600-
NEBRASKA PANHANDLE

CITY           SKY/WX    TMP DP  RH WIND       PRES   REMARKS
SCOTTSBLUFF    CLEAR     66  55  67 SE6       30.19R
ALLIANCE       CLEAR     63  56  78 SE8       30.18R
CHADRON        CLEAR     75  53  46 S15       30.13R
KIMBALL        PTCLDY    60  56  88 S3        30.25R
SIDNEY         CLOUDY    60  54  80 CALM      30.23R
$$

NEZ057>060-069>072-079>082-250600-
SOUTHWEST NEBRASKA

CITY           SKY/WX    TMP DP  RH WIND       PRES   REMARKS
NORTH PLATTE   CLOUDY    69  62  78 E6        30.15S
IMPERIAL       CLOUDY    70  55  59 S13       30.10F
LEXINGTON      CLOUDY    70  64  81 E5        30.13S
MCCOOK         CLOUDY    73  61  65 SE13      30.11F
OGALLALA       CLOUDY    71  59  66 E6        30.16R
$$

NEZ005>010-023>029-035>040-094-250600-
NORTH CENTRAL NEBRASKA

CITY           SKY/WX    TMP DP  RH WIND       PRES   REMARKS
VALENTINE      PTCLDY    68  58  70 SE6       30.14R
AINSWORTH      CLOUDY    67  60  77 SE5       30.15S
BROKEN BOW     CLOUDY    64  63  96 CALM      30.13F
O`NEILL        PTCLDY    68  59  71 CALM      30.14S
ORD            MOCLDY    69  60  73 CALM      30.11S
THEDFORD       PTCLDY    69  60  74 CALM      30.17R
$$

NEZ041-046>049-061>064-073>077-083>087-250600-
SOUTH CENTRAL NEBRASKA

CITY           SKY/WX    TMP DP  RH WIND       PRES   REMARKS
GRAND ISLAND   CLOUDY    68  63  84 NE5       30.12R
AURORA         CLOUDY    68  65  91 CALM      30.11S
HASTINGS       CLOUDY    70  64  81 NE6       30.12S
HEBRON         MOCLDY    67  63  89 CALM      30.08R
HOLDREGE       MOCLDY    69  64  86 E5        30.12S
KEARNEY *      CLOUDY    68  63  83 E6        30.13S
YORK           CLOUDY    68  64  88 CALM      30.11R
$$

NEZ011>018-030>034-042>045-250600-
NORTHEAST NEBRASKA

CITY           SKY/WX    TMP DP  RH WIND       PRES   REMARKS
NORFOLK        PTCLDY    64  60  87 W3        30.10F
ALBION         MOCLDY    64  60  85 CALM      30.12S
BLAIR          PTCLDY    71  67  85 N7        30.07R
FREMONT        MOCLDY    70  63  79 CALM      30.08S
TEKAMAH        MOCLDY    68  64  87 N7        30.06S
WAYNE          CLOUDY    64  62  94 CALM      30.10S
$$

NEZ050>053-065>068-078-088>093-250600-
SOUTHEAST NEBRASKA

CITY           SKY/WX    TMP DP  RH WIND       PRES   REMARKS
LINCOLN        PTCLDY    69  65  86 N3        30.08R
OMAHA EPPLEY   MOCLDY    71  66  84 NW5       30.05R
BEATRICE       PTCLDY    66  64  94 N3        30.06R
FALLS CITY     PTCLDY    70  67  90 N5        30.03R
NEBRASKA CITY  CLOUDY    70  66  87 NW3       30.05R
PLATTSMOUTH    PTCLDY    70  66  86 CALM      30.06R
$$

NEZ044-045-051>053-067-250600-
OMAHA AREA

CITY           SKY/WX    TMP DP  RH WIND       PRES   REMARKS
OMAHA EPPLEY   MOCLDY    71  66  84 NW5       30.05R
BLAIR          PTCLDY    71  67  85 N7        30.07R
FREMONT        MOCLDY    70  63  79 CALM      30.08S
MILLARD        PTCLDY    75  65  70 CALM      30.05R
OFFUTT AFB     PTCLDY    74  66  77 N7        30.05R
PLATTSMOUTH    PTCLDY    70  66  86 CALM      30.06R
WAHOO          FAIR      69  66  91 N6        30.07S
$$




USA.gov is the U.S. government's official web portal to all federal, state and local government web resources and services.